Location: San Martino di Castrozza
(46.2667°N, 11.8000°E)
Time: 01:56:18
(UTC+00:00)

IDEFIX/ARIANE 42P - Pass Details

Date: 23 April 2021
Orbit: 785 x 802 km, 98.4° (Epoch: 15 May)

Event Time Altitude Azimuth Distance (km) Brightness Sun altitude
Rises 02:32:15 0° 10° (N) 3,299 6.6 -15.9°
Reaches altitude 10° 02:34:36 10° 6° (N) 2,368 5.7 -15.6°
Maximum altitude 02:39:43 56° 289° (WNW) 939 2.7 -14.9°
Enters shadow 02:43:11 20° 218° (SW) 1,752 3.8 -14.4°
